Newport News, VA

8:12 AM EST on December 16, 2019 (GMT -0500)
Newport News-Williamsburg International

Weather History for KPHF - September, 2019

Change the Weather History Date:

Tuesday, September 17, 2019

  Actual Average Record
Temperature  
Mean Temperature 74 °F -  
Max Temperature 80 °F 82 °F 95 °F (1958)
Min Temperature 68 °F 64 °F 48 °F (2000)
Cooling Degree Days 9    
Growing Degree Days 24 (Base 50)    
Moisture  
Dew Point 63 °F    
Average Humidity 73    
Maximum Humidity 96    
Minimum Humidity 51    
Precipitation  
Precipitation 0.00 in - - ()
Sea Level Pressure  
Sea Level Pressure 30.04 in    
Wind  
Wind Speed 7 mph ()    
Max Wind Speed 16 mph    
Max Gust Speed 26 mph    
Visibility 9.7 miles    
Events      
Averages and records for this station are not official NWS values.
T = Trace of Precipitation, MM = Missing Value Source: Averaged Metar Reports

Daily Weather History Graph

Daily Weather History Graph

Search for Another Location

Airport or City:

Astronomy

Sep. 17, 2019 Rise Set
Actual Time 6:49 AM EDT 7:10 PM EDT
Civil Twilight 6:23 AM EDT 7:36 PM EDT
Nautical Twilight 5:52 AM EDT 8:07 PM EDT
Astronomical Twilight 5:21 AM EDT 8:38 PM EDT
Moon 9:17 PM EDT (9/17) 9:48 AM EDT (9/17)
Length of Visible Light 13h 13m
Length of Day
12h 21m
Waning Gibbous, 89% of the Moon is Illuminated
Sep 17
Waning Gibbous
Sep 21
Last Quarter
Sep 28
New
Oct 5
First Quarter
Oct 13
Full

Hourly Weather History & Observations

Time (EDT) Temp. Heat Index Dew Point Humidity Pressure Visibility Wind Dir Wind Speed Gust Speed Precip Events Conditions
1:54 AM 70.0 °F - 66.9 °F 90% 29.98 in 10.0 mi Calm Calm - N/A   Overcast
2:54 AM 69.1 °F - 66.9 °F 93% 29.97 in 9.0 mi Calm Calm - N/A   Overcast
3:54 AM 69.1 °F - 66.0 °F 90% 29.97 in 9.0 mi Calm Calm - N/A   Overcast
5:54 AM 70.0 °F - 68.0 °F 93% 29.98 in 7.0 mi Calm Calm - N/A   Partly Cloudy
6:54 AM 69.1 °F - 68.0 °F 96% 29.99 in 8.0 mi Calm Calm - N/A   Mostly Cloudy
7:54 AM 73.9 °F - 70.0 °F 87% 30.01 in 10.0 mi ENE 11.5 mph - N/A   Partly Cloudy
8:45 AM 75.9 °F - 70.0 °F 82% 30.02 in 10.0 mi ENE 15.0 mph - N/A   Mostly Cloudy
8:54 AM 75.9 °F - 69.1 °F 79% 30.02 in 10.0 mi East 16.1 mph 23.0 mph N/A   Mostly Cloudy
9:54 AM 77.0 °F - 64.9 °F 66% 30.04 in 10.0 mi East 16.1 mph - N/A   Overcast
10:54 AM 78.1 °F - 68.0 °F 71% 30.04 in 10.0 mi East 16.1 mph - N/A   Mostly Cloudy
11:54 AM 77.0 °F - 68.0 °F 74% 30.06 in 10.0 mi East 15.0 mph - N/A   Overcast
12:54 PM 80.1 °F 81.9 °F 64.9 °F 60% 30.06 in 10.0 mi ENE 16.1 mph - N/A   Overcast
1:54 PM 78.1 °F - 64.0 °F 62% 30.05 in 10.0 mi ENE 15.0 mph 26.5 mph N/A   Mostly Cloudy
2:54 PM 78.1 °F - 63.0 °F 60% 30.04 in 10.0 mi ENE 16.1 mph 23.0 mph N/A   Mostly Cloudy
3:54 PM 75.9 °F - 64.0 °F 67% 30.05 in 10.0 mi East 15.0 mph - N/A   Overcast
6:54 PM 73.0 °F - 61.0 °F 66% 30.07 in 10.0 mi ENE 13.8 mph 20.7 mph N/A   Overcast
7:54 PM 71.1 °F - 57.0 °F 61% 30.08 in 10.0 mi ENE 11.5 mph - N/A   Partly Cloudy
8:54 PM 70.0 °F - 51.1 °F 51% 30.08 in 10.0 mi NE 11.5 mph - N/A   Clear
9:54 PM 69.1 °F - 52.0 °F 54% 30.09 in 10.0 mi ENE 10.4 mph - N/A   Clear
10:54 PM 68.0 °F - 55.0 °F 63% 30.09 in 10.0 mi NE 8.1 mph - N/A   Clear
11:54 PM 68.0 °F - 54.0 °F 61% 30.09 in 10.0 mi ENE 8.1 mph - N/A   Clear